Flag for Germany Weather past 2 weeks in Garbsen, Lower Saxony, Germany

Now
55 °F

Broken clouds.


Feels Like: 54 °F
Forecast: 48 / 59 °F
Wind: 6 mph from Southwest

Location: Hannover

Current Time: Oct 25, 2014 at 5:34:47 PM

Latest Report: Oct 25, 2014 at 4:50 PM


Visibility: N/A

Pressure: 30.09 "Hg

Humidity: 88%

Dew point: 52 °F

Location of GarbsenLocation

Historic Weather in Garbsen — Graph

°F

Garbsen temperature yesterday

Maximum temperature yesterday: 59 °F (at 3:20 PM)
Minimum temperature yesterday: 52 °F (at 12:20 AM)
Average temperature yesterday: 53 °F

Past Weeks' High & Low Weather Summary

 TemperatureHumidityPressure
High73 °F (Oct 19, 4:20 PM)100% (Oct 11, 2:20 AM)30.18 "Hg (Oct 11, 2:20 AM)
Low45 °F (Oct 23, 8:50 AM)52% (Oct 14, 2:20 PM)29.42 "Hg (Oct 21, 6:20 PM)
Average56 °F86%29.89 "Hg
* Reported Oct 10 4:20 PM — Oct 25 4:20 PM, Garbsen, Weather by CustomWeather, © 2014

Note: Actual official high and low records may vary slightly from our data, if they occured in-between our weather recording intervals... More about our weather records

Advertising

Garbsen weather history for previous 24 hours

 ConditionsComfort  
Time TempWeatherWind HumidityBarometerVisibility
4:20 PM
Oct 25
55 °FCool.6 mph88%30.09 "HgN/A
3:50 PM55 °FPartly sunny.8 mph88%30.09 "HgN/A
3:20 PM55 °FPartly sunny.6 mph88%30.09 "HgN/A
2:50 PM55 °FPartly sunny.7 mph88%30.07 "HgN/A
2:20 PM55 °FPartly sunny.7 mph88%30.07 "Hg5 mi
1:50 PM55 °FPartly sunny.8 mph88%30.07 "Hg5 mi
1:20 PM55 °FPartly sunny.8 mph88%30.07 "Hg5 mi
12:50 PM54 °FPartly sunny.7 mph94%30.07 "HgN/A
12:20 PM54 °FPartly sunny.8 mph88%30.07 "HgN/A
11:50 AM54 °FPartly sunny.6 mph94%30.07 "HgN/A
11:20 AM54 °FPartly sunny.7 mph88%30.07 "HgN/A
10:50 AM52 °FPartly sunny.5 mph94%30.07 "HgN/A
10:20 AM52 °FPartly sunny.7 mph88%30.07 "HgN/A
9:50 AM50 °FPartly sunny.7 mph94%30.07 "HgN/A
9:20 AM50 °FPartly sunny.7 mph94%30.04 "HgN/A
8:50 AM50 °FPassing clouds.8 mph94%30.04 "HgN/A
8:20 AM50 °FDrizzle. Mostly cloudy.7 mph94%30.04 "Hg4 mi
7:50 AM50 °FLight rain. Mostly cloudy.6 mph94%30.04 "HgN/A
7:20 AM50 °FLight rain. Overcast.7 mph88%30.04 "HgN/A
6:50 AM50 °FLight rain. Passing clouds.7 mph88%30.04 "HgN/A
6:20 AM50 °FRain. Passing clouds.8 mph88%30.04 "Hg5 mi
5:50 AM52 °FLight rain. Partly cloudy.8 mph82%30.04 "HgN/A
5:20 AM52 °FLight rain. Clear.8 mph82%30.04 "HgN/A
4:50 AM52 °FClear.8 mph77%30.04 "Hg10 mi
4:20 AM52 °FClear.10 mph77%30.04 "Hg10 mi
3:50 AM52 °FClear.8 mph77%30.04 "Hg10 mi
3:20 AM52 °FClear.9 mph77%30.04 "Hg10 mi
2:50 AM52 °FClear.8 mph77%30.04 "Hg10 mi
2:20 AM52 °FClear.10 mph77%30.04 "Hg10 mi
1:50 AM52 °FClear.10 mph77%30.07 "Hg10 mi
1:20 AM52 °FClear.10 mph77%30.07 "Hg10 mi
12:50 AM52 °FClear.9 mph82%30.07 "Hg10 mi
12:20 AM52 °FClear.12 mph82%30.07 "Hg10 mi
11:50 PM
Oct 24
52 °FClear.10 mph82%30.07 "Hg10 mi
11:20 PM54 °FClear.10 mph77%30.07 "Hg10 mi
10:50 PM54 °FClear.8 mph72%30.07 "Hg10 mi
10:20 PM54 °FClear.9 mph72%30.07 "Hg10 mi
9:50 PM54 °FClear.8 mph77%30.07 "Hg10 mi
9:20 PM54 °FClear.7 mph77%30.07 "Hg10 mi
8:50 PM52 °FPartly cloudy.7 mph77%30.07 "HgN/A
8:20 PM54 °FPartly cloudy.6 mph72%30.07 "HgN/A
7:50 PM54 °FPassing clouds.6 mph72%30.09 "HgN/A
7:20 PM54 °FPassing clouds.6 mph72%30.07 "HgN/A
6:50 PM54 °FBroken clouds.7 mph72%30.09 "HgN/A
6:20 PM54 °FPartly sunny.6 mph72%30.09 "HgN/A
5:50 PM55 °FPartly sunny.7 mph67%30.09 "HgN/A
5:20 PM55 °FScattered clouds.6 mph67%30.09 "HgN/A
Weather by CustomWeather, © 2014

See weather overviewHow to use our weather pages